This demonstration page uses our WeatherBlox Daily Observations layout. Learn more.

38.88101, -77.10428

Hourly Observations for August 17, 2016

Temp ( °F °C ) Dew Point ( °F °C ) Humidity (%) Winds ( mph kmh ) Pressure ( in mb ) Visibility ( mi km ) Precip ( " mm )
12:52 am 00:52 Mostly Cloudy 86 30 73 22.8 65 65 N 6 9 30.09 1019 10 16.09344 0 0
1:52 am 01:52 Mostly Cloudy 84 28.9 72 22.2 67 67 SW 5 7 30.06 1018 10 16.09344 0 0
2:52 am 02:52 Mostly Cloudy 83 28.3 73 22.8 72 72 SSW 7 11 30.06 1018 10 16.09344 0 0
3:52 am 03:52 Partly Cloudy 81 27.2 73 22.8 77 77 SW 6 9 30.06 1018 10 16.09344 0 0
4:52 am 04:52 Partly Cloudy 80 26.7 73 22.8 79 79 SSW 5 7 30.09 1019 10 16.09344 0 0
5:52 am 05:52 Partly Cloudy 79 26.1 73 22.8 82 82 SW 6 9 30.09 1019 10 16.09344 0 0
6:52 am 06:52 Mostly Cloudy 80 26.7 72 22.2 76 76 SSW 8 13 30.09 1019 10 16.09344 0 0
7:52 am 07:52 Mostly Cloudy 82 27.8 72 22.2 72 72 SSW 8 13 30.09 1019 10 16.09344 0 0
8:52 am 08:52 Mostly Cloudy 87 30.6 71 21.7 59 59 W 6 9 30.12 1020 10 16.09344 0 0
9:52 am 09:52 Partly Cloudy 88 31.1 69 20.6 54 54 NW 13 20 30.12 1020 10 16.09344 0 0
10:52 am 10:52 Mostly Cloudy 89 31.7 69 20.6 52 52 NW 9 15 30.12 1020 10 16.09344 0 0
11:52 am 11:52 Mostly Cloudy 91 32.8 69 20.6 49 49 WNW 14 22 30.09 1019 10 16.09344 0 0
12:52 pm 12:52 Cloudy 89 31.7 68 20 50 50 W 10 17 30.09 1019 10 16.09344 0 0
1:52 pm 13:52 Mostly Cloudy 93 33.9 69 20.6 46 46 NW 10 17 30.09 1019 10 16.09344 0 0
2:52 pm 14:52 Mostly Cloudy 93 33.9 70 21.1 47 47 N 7 11 30.06 1018 10 16.09344 0 0
3:52 pm 15:52 Mostly Cloudy 92 33.3 70 21.1 49 49 NNW 10 17 30.03 1017 10 16.09344 0 0
4:52 pm 16:52 Mostly Cloudy 93 33.9 69 20.6 46 46 N 5 7 30 1016 10 16.09344 0 0
5:52 pm 17:52 Mostly Cloudy 93 33.9 71 21.7 49 49 NE 3 6 30 1016 10 16.09344 0 0
6:52 pm 18:52 Mostly Cloudy 90 32.2 71 21.7 54 54 S 12 19 30 1016 10 16.09344 0 0
7:52 pm 19:52 Mostly Cloudy 89 31.7 70 21.1 53 53 SSW 13 20 30 1016 10 16.09344 0 0
8:52 pm 20:52 Mostly Cloudy 87 30.6 74 23.3 65 65 S 6 9 30 1016 10 16.09344 0 0
9:10 pm 21:10 Mostly Cloudy with Thunderstorms 84 29 72 22 66 66 S 18 30 30.09 1019 8 12.874752 0 0
9:14 pm 21:14 Mostly Cloudy with Heavy Thunderstorms 75 24 70 21 83 83 WNW 31 50 30.09 1019 1.5 2.414016 0 0
9:18 pm 21:18 Cloudy with Heavy Thunderstorms 73 23 70 21 89 89 NW 21 33 30.09 1019 0.75 1.207008 0 0
9:23 pm 21:23 Cloudy with Heavy Thunderstorms 73 22.8 70 21.1 90 90 NW 15 24 30.09 1019 1 1.609344 0.26 6.604
9:27 pm 21:27 Mostly Cloudy with Heavy Thunderstorms 73 22.8 70 21.1 90 90 W 9 15 30.09 1019 1.75 2.816352 0.35 8.89
9:29 pm 21:29 Cloudy with Heavy Thunderstorms 73 22.8 69 20.6 87 87 WSW 10 17 30.09 1019 2 3.218688 0.37 9.398
9:36 pm 21:36 Cloudy with Heavy Thunderstorms 73 23 70 21 89 89 SW 13 20 30.09 1019 1.5 2.414016 0 0
9:46 pm 21:46 Cloudy with Heavy Thunderstorms 73 23 70 21 89 89 SW 10 17 30.09 1019 2.5 4.02336 0 0
9:52 pm 21:52 Cloudy with Heavy Thunderstorms 73 22.8 70 21.1 90 90 SSW 8 13 30.09 1019 3 4.828032 0.59 14.986
9:58 pm 21:58 Cloudy with Heavy Thunderstorms 73 23 70 21 89 89 N 5 7 30.09 1019 1.5 2.414016 0 0
10:09 pm 22:09 Cloudy with Light Thunderstorms 73 22.8 71 21.7 94 94 Calm 30.06 1018 2.5 4.02336 0.28 7.112
10:11 pm 22:11 Mostly Cloudy with Light Thunderstorms 73 22.8 71 21.7 94 94 Calm 30.06 1018 5 8.04672 0.28 7.112
10:16 pm 22:16 Mostly Cloudy with Light Rain 73 23 72 22 94 94 Calm 30.06 1018 10 16.09344 0 0
10:52 pm 22:52 Cloudy with Light Rain 74 23.3 71 21.7 91 91 N 3 6 30.06 1018 10 16.09344 0.28 7.112
11:52 pm 23:52 Cloudy 75 23.9 72 22.2 90 90 ESE 6 9 30.03 1017 10 16.09344 0.01 0.254

Powered by AerisWeather